Find Starlink 5406

NORAD ID: 54860 Int'l Des: 2022-177 Owner: SPXS Country: US Constellation: starlink operational
LEOCIRCULAR

实时位置

正在加载3D地球...

关于 Starlink 5406

正在加载描述...

即将过境

Passes for default location (London). Set your location on the main map for personalized predictions.

高度历史

Loading altitude history...

两行轨道根数

1 54860U 22177AS 26106.76388213 -.00004317 00000-0 -15128-3 0 9992
2 54860 43.0051 266.5512 0002647 267.7561 92.2987 15.26749399182911
Epoch: Apr 16, 2026 • Age: 24 hours

当前状态

高度 485.2 km
速度 7.62 km/s
星下点 7.40°N, 52.36°W
发射日期 Dec 28, 2022
运行时间 3.3 years
类型 internet

技术详情

分类 Payload
质量 305.00 kg
干质量 290.00 kg
总质量 305.00 kg
长度 0.20 m
直径 2.80 m
跨度 9.00 m
形状 Box + pan
制造商 SPXS
平台类型 Starlink
阶段状态 In Orbit
所有者/国家 SPXS/US

Most Searched